Wind_Speed
30 31 31 38 36 32 29 25 25 22 20 19 17 16 16 15 15 14 12 12 10 9
33 33 30 34 33 33 29 27 25 22 19 19 17 16 16 15 15 14 13 12 12 12
28 30 35 34 35 31 29 29 28 25 22 20 17 15 15 16 17 17 15 14 14 12
31 26 29 30 31 34 31 28 27 26 24 21 19 17 14 14 15 15 16 15 15 16
32 35 28 29 33 33 31 29 27 27 25 22 19 17 17 17 17 16 15 14 14 14
34 33 35 35 35 33 31 28 26 27 25 23 21 20 19 18 18 18 18 17 16 16
32 35 38 38 36 33 31 31 29 26 25 23 23 22 19 18 18 18 17 15 15 16
28 31 34 37 36 31 30 28 27 26 25 24 22 20 20 20 19 17 17 16 17 18
31 34 33 30 29 27 25 25 25 23 25 24 17 20 19 19 19 18 19 18 16 17
29 28 29 31 31 28 25 22 21 21 20 18 14 18 18 19 19 20 18 19 18 17
28 28 27 28 29 31 35 27 26 22 20 20 17 22 21 22 18 17 17 17 16 17
28 32 32 30 28 26 27 25 22 22 22 21 22 23 25 25 20 19 16 14 14 16
32 32 32 31 31 29 27 25 23 20 18 20 24 26 26 24 20 20 18 14 13 15
32 32 33 32 33 31 27 23 22 21 21 23 26 28 26 26 19 19 18 16 14 13
Wind_Direction
182 181 179 177 175 176 174 176 175 172 169 163 159 154 153 147 148 151 152 155 154 149
181 179 176 178 171 182 177 179 171 167 164 160 158 156 149 142 139 138 134 133 135 134
175 183 182 176 177 174 177 178 169 164 167 160 160 156 149 142 142 140 139 139 132 122
175 177 181 172 179 175 179 176 171 165 165 163 161 161 154 149 145 145 138 137 132 125
186 181 181 181 183 175 172 176 173 165 166 166 163 165 168 162 162 150 147 142 139 132
184 180 178 181 181 172 171 175 174 168 166 167 169 172 171 169 159 156 153 154 152 147
175 180 182 180 176 172 175 176 175 170 168 172 175 173 171 170 162 158 156 161 156 155
172 171 175 172 172 169 172 172 171 168 168 173 177 176 175 172 165 160 155 150 151 145
165 166 164 162 162 163 162 164 164 165 170 168 172 184 183 168 157 151 145 141 134 130
163 158 159 161 160 158 155 158 158 160 165 158 170 180 182 175 151 145 150 145 143 135
162 157 159 160 161 160 167 165 167 165 164 162 166 169 169 164 149 155 152 150 148 145
169 158 159 161 161 160 159 162 167 166 165 164 163 165 170 160 157 154 152 151 154 150
171 164 161 158 155 155 157 157 160 167 170 170 162 168 171 164 161 153 153 156 156 164
166 164 160 154 157 158 157 158 168 169 168 167 168 172 174 173 163 159 157 157 157 164
Height
736 744 750 751 759 769 776 784 791 794 797 800 803 805 807 808 810 812 815 818 822 824
732 738 745 751 752 768 774 784 788 792 797 799 803 805 806 807 810 813 817 820 823 824
729 739 741 746 753 759 772 781 781 785 795 798 803 807 807 810 811 813 816 820 823 827
725 735 745 744 754 758 769 777 781 783 790 797 801 806 810 813 814 818 817 820 820 821
725 725 735 743 754 761 766 777 779 780 788 795 799 805 810 812 815 815 819 821 824 824
718 724 733 744 752 754 764 774 779 779 786 792 798 805 808 812 812 814 815 822 825 826
718 724 731 740 748 755 762 772 777 778 783 792 799 804 808 812 813 815 817 824 823 828
718 724 732 739 748 757 765 771 775 777 784 792 800 805 807 809 812 817 821 824 826 826
717 722 731 740 748 757 763 769 775 780 788 792 799 804 808 809 812 816 820 828 831 830
714 719 728 737 747 755 760 770 777 783 788 791 799 802 807 812 812 815 824 828 832 833
712 720 729 737 744 749 758 769 775 782 786 790 797 800 805 810 813 821 825 829 831 834
712 715 725 736 744 753 760 768 775 780 785 791 796 797 803 806 815 821 826 829 833 833
708 717 725 733 740 750 759 766 773 783 786 791 792 799 808 808 815 815 820 827 831 834
708 717 722 729 737 747 757 767 777 782 786 790 792 798 804 807 812 816 821 825 829 833